Location: Zagreb
(45.8000°N, 16.0000°E)
Time: 20:23:01
(UTC+01:00)

CUTE-I - Pass Details

Date: 06 November 2020
Orbit: 811 x 824 km, 98.7° (Epoch: 01 December)

Event Time Altitude Azimuth Distance (km) Brightness Sun altitude
Rises 17:26:30 0° 169° (S) 3,318 ? -9.3°
Reaches altitude 10° 17:28:50 10° 171° (S) 2,392 ? -9.7°
Maximum altitude 17:34:07 75° 256° (WSW) 846 ? -10.6°
Drops below altitude 10° 17:39:28 10° 343° (NNW) 2,415 ? -11.5°
Sets 17:41:50 0° 345° (NNW) 3,353 ? -11.9°
